Location: Newark
(15.4608°S, 41.1635°W)
Time: 00:23:50
(UTC+00:00)

Vanguard 3 - Pass Details

Date: 31 July 2021
Orbit: 510 x 3260 km, 33.3° (Epoch: 20 September)

Event Time Altitude Azimuth Distance (km) Brightness Sun altitude
Rises 18:58:36 0° 289° (WNW) 4,429 12.5 20.4°
Reaches altitude 10° 19:04:39 10° 321° (NW) 4,136 12.1 19.1°
Maximum altitude 19:07:50 11° 337° (NNW) 4,351 11.7 18.4°
Drops below altitude 10° 19:11:28 10° 354° (N) 4,821 11.6 17.6°
Sets 19:21:02 0° 21° (NNE) 6,588 11.8 15.6°
